This is the latest recevied weather packets stored in our database for station/object KX4O-13. If no packets are shown the sender has not sent any weather packets the latest 10 day(s).
| Time | Temp. | Humidity | Pressure | Rain* | Wind** | Luminosity | Snow |
|---|---|---|---|---|---|---|---|
| 1778134550 | 12.22° C | 91% | 1010.6 hPa | 0.25 mm | - | 0 W/m² | - |
| 1778134252 | 12.78° C | 91% | 1010.7 hPa | 0.25 mm | - | 0 W/m² | - |
| 1778133950 | 12.78° C | 91% | 1010.9 hPa | 0.51 mm | - | 0 W/m² | - |
| 1778133650 | 12.78° C | 92% | 1010.9 hPa | 0.51 mm | - | 0 W/m² | - |
| 1778133350 | 12.78° C | 92% | 1010.5 hPa | 0.76 mm | - | 0 W/m² | - |
| 1778133050 | 12.78° C | 92% | 1010.4 hPa | 1.02 mm | - | 0 W/m² | - |
| 1778132750 | 12.78° C | 93% | 1010.5 hPa | 1.52 mm | - | 0 W/m² | - |
| 1778132450 | 12.78° C | 93% | 1010.4 hPa | 1.78 mm | - | 0 W/m² | - |
| 1778132151 | 12.78° C | 93% | 1010.1 hPa | 2.03 mm | - | 0 W/m² | - |
| 1778131852 | 13.33° C | 93% | 1010.1 hPa | 2.29 mm | - | 0 W/m² | - |
| 1778131550 | 13.33° C | 93% | 1010.3 hPa | 2.29 mm | - | 0 W/m² | - |
| 1778131250 | 13.33° C | 93% | 1010.4 hPa | 2.29 mm | - | 0 W/m² | - |
| 1778130950 | 13.33° C | 93% | 1010.3 hPa | 2.29 mm | - | 0 W/m² | - |
| 1778130651 | 12.78° C | 93% | 1010.5 hPa | 2.54 mm | - | 0 W/m² | - |
| 1778130351 | 12.78° C | 92% | 1009.8 hPa | 2.54 mm | - | 0 W/m² | - |
| 1778130050 | 12.78° C | 92% | 1009.9 hPa | 3.05 mm | - | 0 W/m² | - |
| 1778129750 | 13.33° C | 92% | 1010 hPa | 3.3 mm | - | 0 W/m² | - |
| 1778129452 | 13.33° C | 91% | 1010.4 hPa | 3.56 mm | - | 0 W/m² | - |
| 1778129150 | 13.33° C | 91% | 1010.4 hPa | 3.56 mm | - | 0 W/m² | - |
| 1778128850 | 13.33° C | 91% | 1010.4 hPa | 4.06 mm | - | 0 W/m² | - |
| 1778128551 | 13.33° C | 91% | 1010.1 hPa | 4.06 mm | - | 0 W/m² | - |
| 1778128251 | 13.89° C | 91% | 1010.1 hPa | 3.81 mm | - | 0 W/m² | - |
| 1778127951 | 13.89° C | 92% | 1010.2 hPa | 3.81 mm | - | 0 W/m² | - |
| 1778127651 | 13.89° C | 92% | 1010.2 hPa | 4.06 mm | - | 0 W/m² | - |
| 1778127350 | 13.89° C | 92% | 1010.4 hPa | 3.81 mm | - | 0 W/m² | - |
* Rain latest hour (hover to see other rain measurements)
** Current wind speed in m/s (hover to see current wind gust speed)